| time (UTC) | temp F | wind direction | speed MPH | gust MPH | rain 1hr in | rain 24hr in | rain mn in | humidity % | barometer mb |
| 20260507143048 | 52 | 298 | 2.0 | 7.0 | 0.00 | 0.00 | 0.00 | 55 | 1016.1 |
| 20260507141544 | 51 | 30 | 2.0 | 8.0 | 0.00 | 0.00 | 0.00 | 59 | 1016.2 |
| 20260507140039 | 51 | 27 | 4.0 | 10.0 | 0.00 | 0.00 | 0.00 | 58 | 1016.3 |
| 20260507134535 | 49 | 313 | 0.0 | 5.0 | 0.00 | 0.00 | 0.00 | 61 | 1016.3 |
| 20260507133033 | 48 | 292 | 1.0 | 11.0 | 0.00 | 0.00 | 0.00 | 63 | 1016.2 |
| 20260507131541 | 48 | 0 | 1.0 | 9.0 | 0.00 | 0.00 | 0.00 | 66 | 1016.1 |
| 20260507130051 | 47 | 351 | 4.0 | 9.0 | 0.00 | 0.00 | 0.00 | 68 | 1016.1 |
| 20260507124557 | 46 | 0 | 2.0 | 8.0 | 0.00 | 0.00 | 0.00 | 73 | 1016.1 |
| 20260507123040 | 44 | 350 | 3.0 | 9.0 | 0.00 | 0.00 | 0.00 | 81 | 1016.3 |
| 20260507121537 | 42 | 0 | 1.0 | 4.0 | 0.00 | 0.00 | 0.00 | 90 | 1016.3 |
| 20260507120034 | 40 | 355 | 0.0 | 2.0 | 0.00 | 0.00 | 0.00 | 92 | 1016.2 |
| 20260507114558 | 39 | 0 | 0.0 | 0.0 | 0.00 | 0.00 | 0.00 | 92 | 1016.2 |
| 20260507113040 | 38 | 0 | 0.0 | 1.0 | 0.00 | 0.00 | 0.00 | 92 | 1016.1 |
| 20260507111541 | 38 | 0 | 0.0 | 0.0 | 0.00 | 0.00 | 0.00 | 92 | 1016.2 |
| 20260507110044 | 37 | 0 | 0.0 | 0.0 | 0.00 | 0.00 | 0.00 | 92 | 1016.0 |
| 20260507104534 | 37 | 0 | 0.0 | 0.0 | 0.00 | 0.00 | 0.00 | 91 | 1015.6 |
| 20260507103041 | 37 | 0 | 0.0 | 0.0 | 0.00 | 0.00 | 0.00 | 91 | 1015.6 |
| 20260507101536 | 38 | 0 | 0.0 | 0.0 | 0.00 | 0.00 | 0.00 | 91 | 1015.7 |
| 20260507100045 | 38 | 0 | 0.0 | 1.0 | 0.00 | 0.00 | 0.00 | 91 | 1015.5 |
| 20260507094543 | 38 | 0 | 0.0 | 0.0 | 0.00 | 0.00 | 0.00 | 91 | 1015.5 |
| 20260507093042 | 38 | 0 | 0.0 | 0.0 | 0.00 | 0.00 | 0.00 | 91 | 1015.6 |
| 20260507091540 | 39 | 0 | 0.0 | 0.0 | 0.00 | 0.00 | 0.00 | 91 | 1015.4 |
| 20260507090034 | 39 | 0 | 0.0 | 0.0 | 0.00 | 0.00 | 0.00 | 91 | 1015.4 |
| 20260507084542 | 39 | 0 | 0.0 | 0.0 | 0.00 | 0.01 | 0.00 | 91 | 1015.1 |
| 20260507083042 | 40 | 0 | 0.0 | 0.0 | 0.00 | 0.01 | 0.00 | 90 | 1015.1 |
| 20260507081541 | 40 | 0 | 0.0 | 0.0 | 0.00 | 0.01 | 0.00 | 90 | 1015.0 |
| 20260507080038 | 40 | 0 | 0.0 | 0.0 | 0.00 | 0.01 | 0.00 | 90 | 1014.9 |
| 20260507074538 | 41 | 0 | 0.0 | 0.0 | 0.00 | 0.06 | 0.00 | 90 | 1015.0 |
| 20260507073042 | 41 | 0 | 0.0 | 0.0 | 0.00 | 0.06 | 0.00 | 90 | 1015.0 |
| 20260507071545 | 41 | 0 | 0.0 | 0.0 | 0.00 | 0.06 | 0.00 | 90 | 1014.9 |
| 20260507070052 | 42 | 0 | 0.0 | 0.0 | 0.00 | 0.06 | 0.00 | 89 | 1014.9 |
| 20260507064540 | 42 | 0 | 0.0 | 0.0 | 0.00 | 0.14 | 0.00 | 89 | 1015.1 |
| 20260507063053 | 42 | 0 | 0.0 | 0.0 | 0.00 | 0.14 | 0.00 | 89 | 1015.1 |
| 20260507061536 | 43 | 0 | 0.0 | 0.0 | 0.00 | 0.14 | 0.00 | 89 | 1015.2 |
| 20260507060043 | 43 | 0 | 0.0 | 0.0 | 0.00 | 0.14 | 0.00 | 88 | 1015.1 |
| 20260507054544 | 43 | 0 | 0.0 | 0.0 | 0.00 | 0.25 | 0.00 | 88 | 1015.2 |
| 20260507053042 | 44 | 0 | 0.0 | 0.0 | 0.00 | 0.25 | 0.00 | 88 | 1015.2 |
| 20260507051541 | 44 | 0 | 0.0 | 0.0 | 0.00 | 0.25 | 0.00 | 87 | 1015.3 |
| 20260507050039 | 45 | 0 | 0.0 | 0.0 | 0.00 | 0.25 | 0.00 | 87 | 1015.3 |
| 20260507044544 | 45 | 0 | 0.0 | 0.0 | 0.00 | 0.32 | 0.00 | 86 | 1015.3 |
| 20260507043042 | 46 | 0 | 0.0 | 0.0 | 0.00 | 0.32 | 0.00 | 86 | 1015.3 |
| 20260507041542 | 46 | 0 | 0.0 | 0.0 | 0.00 | 0.32 | 0.00 | 86 | 1015.2 |
| 20260507040041 | 47 | 0 | 0.0 | 0.0 | 0.00 | 0.32 | 0.00 | 85 | 1015.2 |
| 20260507034542 | 47 | 0 | 0.0 | 0.0 | 0.00 | 0.34 | 0.32 | 85 | 1015.1 |
| 20260507033035 | 47 | 0 | 0.0 | 0.0 | 0.00 | 0.34 | 0.32 | 85 | 1015.2 |
| 20260507031534 | 47 | 0 | 0.0 | 0.0 | 0.00 | 0.34 | 0.32 | 84 | 1015.2 |
| 20260507030043 | 48 | 0 | 0.0 | 0.0 | 0.00 | 0.34 | 0.32 | 83 | 1015.3 |
| 20260507024541 | 48 | 0 | 0.0 | 0.0 | 0.00 | 0.35 | 0.32 | 82 | 1015.4 |
| 20260507023040 | 48 | 0 | 0.0 | 0.0 | 0.00 | 0.35 | 0.32 | 81 | 1015.1 |
| 20260507021538 | 49 | 0 | 0.0 | 0.0 | 0.00 | 0.35 | 0.32 | 79 | 1015.2 |
| 20260507020042 | 50 | 0 | 0.0 | 0.0 | 0.00 | 0.35 | 0.32 | 78 | 1015.0 |
| 20260507014551 | 51 | 0 | 0.0 | 0.0 | 0.00 | 0.40 | 0.32 | 77 | 1014.9 |
| 20260507013047 | 52 | 0 | 0.0 | 0.0 | 0.00 | 0.40 | 0.32 | 75 | 1014.7 |
| 20260507011540 | 53 | 0 | 0.0 | 0.0 | 0.00 | 0.40 | 0.32 | 73 | 1014.5 |
| 20260507010052 | 53 | 0 | 0.0 | 0.0 | 0.00 | 0.40 | 0.32 | 70 | 1014.4 |
| 20260507004540 | 54 | 0 | 0.0 | 0.0 | 0.00 | 0.46 | 0.32 | 67 | 1014.4 |
| 20260507003035 | 55 | 0 | 0.0 | 1.0 | 0.00 | 0.46 | 0.32 | 65 | 1014.5 |
| 20260507001535 | 55 | 332 | 0.0 | 3.0 | 0.00 | 0.46 | 0.32 | 65 | 1014.2 |
| 20260507000034 | 56 | 0 | 1.0 | 6.0 | 0.00 | 0.46 | 0.32 | 62 | 1014.1 |
| 20260506234537 | 56 | 355 | 3.0 | 9.0 | 0.00 | 0.48 | 0.32 | 61 | 1013.9 |
| 20260506233055 | 56 | 0 | 1.0 | 8.0 | 0.00 | 0.48 | 0.32 | 59 | 1013.9 |
| 20260506231542 | 57 | 335 | 1.0 | 8.0 | 0.00 | 0.48 | 0.32 | 59 | 1013.8 |
| 20260506230038 | 57 | 17 | 2.0 | 9.0 | 0.00 | 0.48 | 0.32 | 58 | 1013.5 |
| 20260506224535 | 58 | 0 | 0.0 | 4.0 | 0.00 | 0.48 | 0.32 | 60 | 1013.6 |
| 20260506223041 | 58 | 0 | 1.0 | 5.0 | 0.00 | 0.48 | 0.32 | 59 | 1013.7 |
| 20260506221545 | 58 | 26 | 1.0 | 6.0 | 0.00 | 0.48 | 0.32 | 58 | 1013.9 |
| 20260506220042 | 58 | 304 | 0.0 | 6.0 | 0.00 | 0.48 | 0.32 | 58 | 1014.1 |
| 20260506214540 | 58 | 15 | 1.0 | 5.0 | 0.00 | 0.49 | 0.32 | 56 | 1014.1 |
| 20260506213036 | 58 | 284 | 0.0 | 4.0 | 0.00 | 0.49 | 0.32 | 56 | 1013.9 |
| 20260506211535 | 58 | 329 | 2.0 | 7.0 | 0.00 | 0.49 | 0.32 | 55 | 1013.8 |
| 20260506210041 | 58 | 345 | 2.0 | 13.0 | 0.00 | 0.49 | 0.32 | 57 | 1013.6 |
| 20260506204541 | 59 | 338 | 2.0 | 10.0 | 0.00 | 0.57 | 0.32 | 54 | 1013.6 |
| 20260506203041 | 59 | 5 | 1.0 | 5.0 | 0.00 | 0.57 | 0.32 | 55 | 1013.5 |
| 20260506201541 | 58 | 360 | 4.0 | 9.0 | 0.00 | 0.57 | 0.32 | 58 | 1013.8 |
| 20260506200044 | 58 | 330 | 3.0 | 8.0 | 0.00 | 0.57 | 0.32 | 58 | 1013.8 |
| 20260506194544 | 59 | 309 | 2.0 | 9.0 | 0.00 | 0.69 | 0.32 | 58 | 1013.8 |
| 20260506193034 | 58 | 326 | 3.0 | 11.0 | 0.00 | 0.69 | 0.32 | 59 | 1013.6 |
| 20260506191534 | 59 | 344 | 4.0 | 10.0 | 0.00 | 0.69 | 0.32 | 56 | 1013.2 |
| 20260506190040 | 60 | 14 | 3.0 | 9.0 | 0.00 | 0.69 | 0.32 | 56 | 1013.2 |
| 20260506184540 | 61 | 5 | 1.0 | 8.0 | 0.00 | 0.69 | 0.32 | 56 | 1013.1 |
| 20260506183037 | 61 | 282 | 3.0 | 10.0 | 0.00 | 0.69 | 0.32 | 54 | 1013.1 |
| 20260506181540 | 60 | 40 | 4.0 | 9.0 | 0.00 | 0.69 | 0.32 | 54 | 1013.2 |
| 20260506180044 | 60 | 346 | 1.0 | 9.0 | 0.00 | 0.69 | 0.32 | 58 | 1013.3 |
| 20260506174541 | 59 | 348 | 4.0 | 10.0 | 0.00 | 0.69 | 0.32 | 58 | 1013.5 |
| 20260506173045 | 58 | 80 | 2.0 | 9.0 | 0.00 | 0.69 | 0.32 | 60 | 1013.7 |
| 20260506171548 | 57 | 340 | 2.0 | 9.0 | 0.00 | 0.69 | 0.32 | 63 | 1013.6 |
| 20260506170036 | 57 | 57 | 1.0 | 8.0 | 0.00 | 0.69 | 0.32 | 61 | 1013.9 |
| 20260506164553 | 56 | 342 | 1.0 | 10.0 | 0.00 | 0.69 | 0.32 | 62 | 1013.9 |
| 20260506163044 | 57 | 35 | 1.0 | 10.0 | 0.00 | 0.69 | 0.32 | 63 | 1013.9 |
| 20260506161541 | 56 | 350 | 2.0 | 8.0 | 0.00 | 0.69 | 0.32 | 64 | 1013.8 |
| 20260506160049 | 55 | 293 | 1.0 | 6.0 | 0.00 | 0.69 | 0.32 | 68 | 1013.9 |
| 20260506154548 | 53 | 0 | 2.0 | 11.0 | 0.00 | 0.69 | 0.32 | 70 | 1013.6 |
| 20260506153036 | 53 | 360 | 3.0 | 10.0 | 0.00 | 0.69 | 0.32 | 71 | 1013.4 |
| 20260506151535 | 51 | 331 | 2.0 | 8.0 | 0.00 | 0.69 | 0.32 | 72 | 1013.9 |
| 20260506150042 | 51 | 355 | 3.0 | 8.0 | 0.00 | 0.69 | 0.32 | 75 | 1013.5 |
| 20260506144541 | 50 | 0 | 2.0 | 11.0 | 0.00 | 0.69 | 0.32 | 78 | 1013.3 |